This is the latest recevied weather packets stored in our database for station/object KC5TIL. If no packets are shown the sender has not sent any weather packets the latest 10 day(s).
| Time | Temp. | Humidity | Pressure | Rain* | Wind** | Luminosity | Snow |
|---|---|---|---|---|---|---|---|
| 1777985898 | 21.67° C | 87% | 1006.1 hPa | 0 mm | - | 77 W/m² | - |
| 1777985595 | 21.67° C | 87% | 1005.8 hPa | 0 mm | - | 71 W/m² | - |
| 1777985292 | 21.67° C | 87% | 1006 hPa | 0 mm | - | 61 W/m² | - |
| 1777984989 | 21.67° C | 88% | 1005.9 hPa | 0 mm | - | 58 W/m² | - |
| 1777984684 | 21.67° C | 88% | 1006 hPa | 0 mm | - | 45 W/m² | - |
| 1777984381 | 21.67° C | 89% | 1005.6 hPa | 0 mm | - | 41 W/m² | - |
| 1777984077 | 21.11° C | 89% | 1005.8 hPa | 0 mm | - | 35 W/m² | - |
| 1777983775 | 21.11° C | 89% | 1005.8 hPa | 0 mm | - | 28 W/m² | - |
| 1777983471 | 21.11° C | 89% | 1005.8 hPa | 0 mm | - | 26 W/m² | - |
| 1777983168 | 21.11° C | 89% | 1005.8 hPa | 0 mm | - | 22 W/m² | - |
| 1777982864 | 21.11° C | 89% | 1005.4 hPa | 0 mm | - | 17 W/m² | - |
| 1777982561 | 21.11° C | 89% | 1005.4 hPa | 0 mm | - | 12 W/m² | - |
| 1777982259 | 21.11° C | 90% | 1005.5 hPa | 0 mm | - | 9 W/m² | - |
| 1777981957 | 21.11° C | 90% | 1005.5 hPa | 0 mm | - | 6 W/m² | - |
| 1777981654 | 21.11° C | 89% | 1005.6 hPa | 0 mm | - | 2 W/m² | - |
| 1777981350 | 21.11° C | 90% | 1005.6 hPa | 0 mm | - | 0 W/m² | - |
| 1777981047 | 21.11° C | 90% | 1005.3 hPa | 0 mm | - | 0 W/m² | - |
| 1777980743 | 21.11° C | 90% | 1005.3 hPa | 0 mm | - | 0 W/m² | - |
| 1777980440 | 21.11° C | 90% | 1005.3 hPa | 0 mm | - | 0 W/m² | - |
| 1777980137 | 21.11° C | 90% | 1005.4 hPa | 0 mm | - | 0 W/m² | - |
| 1777979832 | 21.11° C | 89% | 1005.3 hPa | 0 mm | - | 0 W/m² | - |
| 1777979528 | 21.11° C | 89% | 1005.5 hPa | 0 mm | - | 0 W/m² | - |
| 1777979224 | 21.11° C | 89% | 1005.4 hPa | 0 mm | - | 0 W/m² | - |
| 1777978922 | 21.11° C | 89% | 1005.3 hPa | 0 mm | - | 0 W/m² | - |
| 1777978618 | 21.11° C | 89% | 1005.3 hPa | 0 mm | - | 0 W/m² | - |
* Rain latest hour (hover to see other rain measurements)
** Current wind speed in m/s (hover to see current wind gust speed)